Tracking 31027 objects as of 19-Jul-2025
HD Live streaming from Space Station
objects crossing your sky now

STARLINK-3550

Track STARLINK-3550 now!
10-day predictions
STARLINK-3550 is classified as:


NORAD ID: 52373
Int'l Code: 2022-045AU
Perigee: 546.0 km
Apogee: 547.8 km
Inclination: 53.2 °
Period: 95.4 minutes
Semi major axis: 6917 km
RCS: Unknown
Launch date: April 29, 2022
Source: United States (US)
Launch site: AIR FORCE EASTERN TEST RANGE (AFETR)
Your satellite tracking list
ATLAS 2A CENTAUR R/B
Track 1 satellite(s)




NASA's NSSDC Master Catalog

Two Line Element Set (TLE):
1 52373U 22045AU  25199.92127668  .00000045  00000-0  20891-4 0  9993
2 52373  53.2167 158.5470 0001329  81.2925 278.8218 15.08835240180638
Source of the keplerian elements: AFSPC